Zurück zum Katalog

STARLINK-37389

AktivKommunikationSSO
NORAD 68778·PAYLOAD·🇺🇸 United States

Gestartet Apr 19, 2026 von Vandenberg Space Force Base

Loading…

Nächste Überflüge (nächste 24 Stunden)

TLE

AktuellSource: CelesTrak SupGP

Epoche: Sep 14, 2026, 22:56 UTC

1 68778C 26086N   26257.95604167  .00040711  00000+0  12639-2 0  2570
2 68778  97.2840 293.4582 0001585  92.4090 315.0716 15.33413699    12

Verfolge STARLINK-37389 in Echtzeit mit AllMySat

Download on the App Store